This is the latest recevied weather packets stored in our database for station/object AD8IZ-13. If no packets are shown the sender has not sent any weather packets the latest 10 day(s).
| Time | Temp. | Humidity | Pressure | Rain* | Wind** | Luminosity | Snow |
|---|---|---|---|---|---|---|---|
| 1778063726 | 8.33° C | 98% | 1009 hPa | 0 mm | - | 1 W/m² | - |
| 1778063126 | 8.33° C | 98% | 1008.6 hPa | 0 mm | - | 0 W/m² | - |
| 1778062527 | 8.33° C | 98% | 1008.3 hPa | 0 mm | - | 0 W/m² | - |
| 1778061926 | 8.33° C | 98% | 1007.9 hPa | 0 mm | - | 0 W/m² | - |
| 1778061326 | 8.33° C | 98% | 1007.8 hPa | 0.51 mm | - | 0 W/m² | - |
| 1778060726 | 8.33° C | 98% | 1008 hPa | 0.76 mm | - | 0 W/m² | - |
| 1778060126 | 8.33° C | 98% | 1008 hPa | 1.02 mm | - | 0 W/m² | - |
| 1778059518 | 8.33° C | 98% | 1008.2 hPa | 1.52 mm | - | 0 W/m² | - |
| 1778058919 | 8.33° C | 98% | 1007.9 hPa | 2.29 mm | - | 0 W/m² | - |
| 1778058327 | 8.33° C | 98% | 1007.7 hPa | 3.05 mm | - | 0 W/m² | - |
| 1778057724 | 8.33° C | 98% | 1008.2 hPa | 2.79 mm | - | 0 W/m² | - |
| 1778057124 | 8.33° C | 98% | 1008.2 hPa | 2.54 mm | - | 0 W/m² | - |
| 1778056518 | 8.89° C | 98% | 1007.8 hPa | 2.29 mm | - | 0 W/m² | - |
| 1778055927 | 8.89° C | 98% | 1007.8 hPa | 1.78 mm | - | 0 W/m² | - |
| 1778055329 | 8.89° C | 98% | 1007.7 hPa | 1.27 mm | - | 0 W/m² | - |
| 1778054720 | 8.89° C | 98% | 1007.5 hPa | 0.51 mm | - | 0 W/m² | - |
| 1778054119 | 8.89° C | 98% | 1007.4 hPa | 0.76 mm | - | 0 W/m² | - |
| 1778053519 | 8.89° C | 98% | 1007.3 hPa | 1.02 mm | - | 0 W/m² | - |
| 1778052919 | 9.44° C | 98% | 1007.1 hPa | 1.27 mm | - | 0 W/m² | - |
| 1778052320 | 9.44° C | 98% | 1007 hPa | 1.27 mm | - | 0 W/m² | - |
| 1778051720 | 9.44° C | 98% | 1007 hPa | 1.52 mm | - | 0 W/m² | - |
| 1778051121 | 10° C | 98% | 1007.1 hPa | 1.78 mm | - | 0 W/m² | - |
| 1778050518 | 10° C | 98% | 1007.2 hPa | 1.52 mm | - | 0 W/m² | - |
| 1778049918 | 10.56° C | 98% | 1007.2 hPa | 1.27 mm | - | 0 W/m² | - |
| 1778049321 | 10.56° C | 98% | 1007.1 hPa | 1.52 mm | - | 0 W/m² | - |
* Rain latest hour (hover to see other rain measurements)
** Current wind speed in m/s (hover to see current wind gust speed)